Location: Asheville, NC
(35.6000°N, 82.5500°W)
Time: 00:36:59
(UTC-04:00)

BEESAT 2 - Pass Details

Date: 12 March 2018
Orbit: 502 x 533 km, 64.9° (Epoch: 18 June)

Event Time Altitude Azimuth Distance (km) Brightness Sun altitude
Rises 22:02:06 0° 227° (SW) 2,633 ? -30.2°
Reaches altitude 10° 22:04:23 10° 236° (SW) 1,754 ? -30.6°
Enters shadow 22:05:01 14° 240° (WSW) 1,529 ? -30.7°
